Tracking 19286 objects as of 18-Nov-2018
HD Live streaming from Space Station
objects crossing your sky now

COSMOS 1703

Track COSMOS 1703 now!
10-day predictions
COSMOS 1703 is classified as:


NORAD ID: 16262
Int'l Code: 1985-108A
Perigee: 533.8 km
Apogee: 547.5 km
Inclination: 82.5 °
Period: 95.3 minutes
Semi major axis: 6911 km
RCS: 6.9173 m2 (large)
Launch date: November 22, 1985
Source: Commonwealth of Independent States (former USSR) (CIS)
Launch site: PLESETSK MISSILE AND SPACE COMPLEX (PKMTR)
aabbcc
Your satellite tracking list
Your tracking list is empty




NASA's NSSDC Master Catalog

Two Line Element Set (TLE):
1 16262U 85108A   18321.53797540 +.00001219 +00000-0 +71430-4 0  9996
2 16262 082.4778 100.6399 0009923 296.2816 063.7394 15.10881110796897
Source of the keplerian elements: AFSPC